STARLINK-11667, 63550

Orbit data source: Space-Track

STARLINK-11667, 63550 is a payload satellite owned by SpaceX/Seattle (US) in LEO that was launched on Sun, 13 Apr 2025 UTC via an FALCON 9 launch vehicle from the Air Force Eastern Test Range (AFETR). Payload-class satellites include a variety of spacecraft equipped with specific instruments for various scientific and technological missions. These include communications satellites like Starlink; space stations such as the ISS; scientific satellites like the Hubble; Earth observation satellites from companies like Planet Labs, Umbra, and HawkEye 360; GPS; miniature CubeSats for education and research; and military/defense satellites.

Loading next visibility...
Identifier
63550, 2025-075C
Orbit
LEO
Last TLE update
16 hours ago
Origin
Manufacturer
SpaceX/Seattle
Mission
Operational spacecraft
Bus & Motor
STARLINK V2M, Unknown motor
Mass
730 kg wet, ~700 kg dry
Launch date (UTC)
2025-04-13 (3 weeks ago)
Launch vehicle
FALCON 9
Launch site
Air Force Eastern Test Range (AFETR)
Object type
Payload
Rocket body
Debris
Shape & HBR
Unknown
Radar Cross Section
Large (>1 m²)

Expand to show TLE details & history

TLE from 16 hours ago
0 STARLINK-11667
1 63550U 25075C   25125.70198927  .00003563  00000-0  23321-4 0  9998
2 63550  42.9990 212.6391 0001419 268.8140  91.2568 15.77865238  4784
Epoch: 2025-05-05T16:50Z
Definitive object data (Epoch: 2025-05-05T16:50:51.872Z)
Latitude
-0.00001°
Longitude
96.1112°
Altitude
336.282 km
Speed
7.709 km/s
True Right ascension
14h 10m 33s
True Declination
0° 00' 00"
Sunlit
Object was in full shadow at TLE epoch
Visualization TLE readout
Latitude
2.91578°
Longitude
-91.04788°
Altitude
336.042 km
Speed
7.709 km/s
Apparent Right ascension
02h 58m 06s
Apparent Declination
-19° 11' 24"
Sunlit
Object is in daylight
Visualization observer readout
Local Sidereal Time
16:44:13
Azimuth
55.486° ENE
Elevation
-59.205°
Doppler factor
1
Orbital elements
Apogee altitude
339.431 km
Perigee altitude
337.525 km
Semi-major axis
6,716.615 km
Eccentricity
0.0001419
Inclination
42.999°
RAAN
212.6391°
Arg. of periapsis
268.814°
True anomaly
91.27306°
Mean anomaly
91.2568°
Eccentric anomaly
91.26493°
Mean motion
3.94292 °/min
BSTAR
0.000023321
Orbital period
91.3 mins
Loading maneuver chart data...
Loading SW <> Apogee altitude chart data...
Loading historical data...
Loading historical data...
Loading historical data...
Loading historical data...
Loading historical data...
Loading historical data...
Loading historical data...

STARLINK-11667 Visibility forecast

Observer location: undefined°, undefined°

Span
Click to sort rows by Start time (UTC) header in descending order
Start Az.
Max El. time (UTC)
Max El. Az.
Max El.
End time (UTC)
End Az.
5 mins2025-05-06 09:47:49.993Z240.43° WSW2025-05-06 09:50:49.993Z101.6° ESE38.091°2025-05-06 09:52:49.993Z75.953° E
|